SWA1525 KBNA-KOKC

Flight info

Callsign SWA1525
Flight time 1h 26m
Altitude 40000
Route PARDN4 HODJS TWITS ZALDA AWLIV MURAH3
Aircraft B38M/M-SADE2E3GHIJ4J7P2RWZ/LB1D1

Departure

Time 2026-04-22 13:03
Airport Nashville International Airport (KBNA)

Arrival

Time 2026-04-22 14:29
Airport OKC Will Rogers World Airport (KOKC)
Time Latitude Longitude Altitude Speed Heading
2026-04-22 12:25 36.12745 -86.66936 571 ft 0 kts 28°
2026-04-22 12:53 36.12744 -86.66936 571 ft 2 kts 28°
2026-04-22 12:53 36.12722 -86.66951 574 ft 4 kts 28°
2026-04-22 12:53 36.12698 -86.66966 578 ft 4 kts 28°
2026-04-22 12:54 36.12681 -86.66977 571 ft 0 kts 28°
2026-04-22 12:58 36.12684 -86.66974 571 ft 1 kts 52°
2026-04-22 12:58 36.12683 -86.66970 571 ft 0 kts 97°
2026-04-22 12:58 36.12679 -86.66964 576 ft 4 kts 121°
2026-04-22 12:59 36.12632 -86.66928 576 ft 10 kts 171°
2026-04-22 12:59 36.12555 -86.66916 574 ft 12 kts 189°
2026-04-22 12:59 36.12468 -86.66955 576 ft 14 kts 176°
2026-04-22 12:59 36.12382 -86.66871 573 ft 18 kts 129°
2026-04-22 13:00 36.12329 -86.66717 573 ft 21 kts 108°
2026-04-22 13:00 36.12284 -86.66562 576 ft 16 kts 98°
2026-04-22 13:00 36.12362 -86.66474 569 ft 18 kts 16°
2026-04-22 13:00 36.12494 -86.66424 572 ft 22 kts 18°
2026-04-22 13:01 36.12646 -86.66361 568 ft 24 kts 18°
2026-04-22 13:01 36.12824 -86.66292 567 ft 29 kts 19°
2026-04-22 13:01 36.13026 -86.66207 559 ft 33 kts 18°
2026-04-22 13:01 36.13237 -86.66123 558 ft 23 kts 16°
2026-04-22 13:02 36.13352 -86.66083 562 ft 12 kts 17°
2026-04-22 13:02 36.13367 -86.65996 560 ft 13 kts 106°
2026-04-22 13:02 36.13332 -86.65940 552 ft 3 kts 200°
2026-04-22 13:02 36.13298 -86.65957 562 ft 7 kts 202°
2026-04-22 13:03 36.13126 -86.66026 563 ft 63 kts 198°
2026-04-22 13:03 36.12451 -86.66296 571 ft 138 kts 198°
2026-04-22 13:03 36.11411 -86.66702 1022 ft 162 kts 196°
2026-04-22 13:03 36.10340 -86.67140 1962 ft 167 kts 208°
2026-04-22 13:04 36.09545 -86.68312 2518 ft 195 kts 245°
2026-04-22 13:04 36.09175 -86.69412 3008 ft 213 kts 245°
2026-04-22 13:04 36.08561 -86.71173 3896 ft 233 kts 245°
2026-04-22 13:04 36.07897 -86.73075 4866 ft 248 kts 248°
2026-04-22 13:05 36.07216 -86.75035 6119 ft 250 kts 248°
2026-04-22 13:05 36.06749 -86.77125 6429 ft 252 kts 269°
2026-04-22 13:05 36.07052 -86.79236 6610 ft 252 kts 282°
2026-04-22 13:05 36.07462 -86.81346 6729 ft 253 kts 282°
2026-04-22 13:06 36.07881 -86.83468 6874 ft 255 kts 282°
2026-04-22 13:06 36.08307 -86.85594 6955 ft 256 kts 282°
2026-04-22 13:06 36.08768 -86.87721 7037 ft 258 kts 289°
2026-04-22 13:06 36.09686 -86.89631 7996 ft 258 kts 300°
2026-04-22 13:07 36.10668 -86.91521 9081 ft 264 kts 300°
2026-04-22 13:07 36.11681 -86.93455 10108 ft 270 kts 301°
2026-04-22 13:07 36.12734 -86.95451 10893 ft 286 kts 301°
2026-04-22 13:07 36.13851 -86.97556 11645 ft 299 kts 302°
2026-04-22 13:08 36.15019 -86.99748 12490 ft 308 kts 302°
2026-04-22 13:08 36.16207 -87.01977 13483 ft 312 kts 302°
2026-04-22 13:08 36.17409 -87.04235 14449 ft 316 kts 302°
2026-04-22 13:08 36.18628 -87.06525 15400 ft 320 kts 303°
2026-04-22 13:09 36.19859 -87.08840 16296 ft 325 kts 303°
2026-04-22 13:09 36.21110 -87.11193 17161 ft 329 kts 303°
2026-04-22 13:09 36.22375 -87.13576 18017 ft 333 kts 303°
2026-04-22 13:09 36.23672 -87.16018 18846 ft 337 kts 303°
2026-04-22 13:10 36.24948 -87.18425 19593 ft 341 kts 303°
2026-04-22 13:10 36.26276 -87.20934 20342 ft 346 kts 302°
2026-04-22 13:10 36.27242 -87.23657 21048 ft 350 kts 284°
2026-04-22 13:10 36.27746 -87.26629 21730 ft 354 kts 283°
2026-04-22 13:11 36.28257 -87.29631 22407 ft 358 kts 283°
2026-04-22 13:11 36.28760 -87.32670 23049 ft 362 kts 283°
2026-04-22 13:11 36.29261 -87.35744 23675 ft 366 kts 283°
2026-04-22 13:11 36.29763 -87.38852 24277 ft 370 kts 283°
2026-04-22 13:12 36.30267 -87.41993 24835 ft 374 kts 283°
2026-04-22 13:12 36.30777 -87.45171 25396 ft 378 kts 283°
2026-04-22 13:12 36.31291 -87.48387 25923 ft 382 kts 283°
2026-04-22 13:12 36.31530 -87.51686 26436 ft 389 kts 269°
2026-04-22 13:13 36.31341 -87.55044 26946 ft 393 kts 270°
2026-04-22 13:13 36.31195 -87.58449 27393 ft 398 kts 270°
2026-04-22 13:13 36.31032 -87.61900 27882 ft 402 kts 270°
2026-04-22 13:13 36.30862 -87.65368 28328 ft 406 kts 270°
2026-04-22 13:14 36.30686 -87.68880 28767 ft 410 kts 270°
2026-04-22 13:14 36.30509 -87.72415 29197 ft 414 kts 270°
2026-04-22 13:14 36.30326 -87.75993 29606 ft 417 kts 270°
2026-04-22 13:14 36.30142 -87.79602 30006 ft 421 kts 271°
2026-04-22 13:15 36.29955 -87.83236 30408 ft 425 kts 271°
2026-04-22 13:15 36.29765 -87.86906 30815 ft 428 kts 271°
2026-04-22 13:15 36.29573 -87.90595 31220 ft 430 kts 271°
2026-04-22 13:15 36.29379 -87.94305 31618 ft 433 kts 271°
2026-04-22 13:16 36.29183 -87.98037 32022 ft 435 kts 271°
2026-04-22 13:16 36.28984 -88.01788 32396 ft 438 kts 271°
2026-04-22 13:16 36.28783 -88.05564 32765 ft 440 kts 271°
2026-04-22 13:16 36.28579 -88.09359 33141 ft 443 kts 271°
2026-04-22 13:17 36.28374 -88.13171 33502 ft 445 kts 271°
2026-04-22 13:17 36.28166 -88.17011 33855 ft 447 kts 271°
2026-04-22 13:17 36.27956 -88.20868 34221 ft 449 kts 271°
2026-04-22 13:17 36.27796 -88.24737 34547 ft 451 kts 272°
2026-04-22 13:18 36.27647 -88.28624 34886 ft 453 kts 272°
2026-04-22 13:18 36.27489 -88.32578 35244 ft 454 kts 272°
2026-04-22 13:18 36.27330 -88.36485 35661 ft 453 kts 272°
2026-04-22 13:18 36.27172 -88.40375 36099 ft 452 kts 272°
2026-04-22 13:19 36.27011 -88.44261 36511 ft 451 kts 272°
2026-04-22 13:19 36.26850 -88.48132 36879 ft 450 kts 272°
2026-04-22 13:19 36.26689 -88.51993 37308 ft 448 kts 272°
2026-04-22 13:19 36.26526 -88.55840 37731 ft 445 kts 272°
2026-04-22 13:20 36.26364 -88.59656 38119 ft 443 kts 272°
2026-04-22 13:20 36.26201 -88.63457 38487 ft 440 kts 272°
2026-04-22 13:20 36.26038 -88.67231 38813 ft 439 kts 272°
2026-04-22 13:20 36.25874 -88.71007 39104 ft 438 kts 272°
2026-04-22 13:21 36.25709 -88.74774 39379 ft 437 kts 272°
2026-04-22 13:21 36.25543 -88.78532 39668 ft 436 kts 272°
2026-04-22 13:21 36.25376 -88.82272 39937 ft 435 kts 272°
2026-04-22 13:21 36.25209 -88.86012 40178 ft 435 kts 272°
2026-04-22 13:22 36.25040 -88.89757 40254 ft 435 kts 271°
2026-04-22 13:22 36.24702 -88.97193 40224 ft 431 kts 271°
2026-04-22 13:23 36.24360 -89.04616 40221 ft 432 kts 271°
2026-04-22 13:23 36.24012 -89.12047 40223 ft 431 kts 271°
2026-04-22 13:24 36.23660 -89.19469 40229 ft 432 kts 271°
2026-04-22 13:24 36.23304 -89.26889 40228 ft 432 kts 271°
2026-04-22 13:25 36.22943 -89.34324 40238 ft 433 kts 271°
2026-04-22 13:25 36.22577 -89.41751 40233 ft 432 kts 271°
2026-04-22 13:26 36.22203 -89.49232 40235 ft 433 kts 271°
2026-04-22 13:26 36.21828 -89.56667 40234 ft 433 kts 271°
2026-04-22 13:27 36.21447 -89.64102 40229 ft 433 kts 271°
2026-04-22 13:27 36.21062 -89.71545 40230 ft 433 kts 271°
2026-04-22 13:28 36.20671 -89.78997 40221 ft 433 kts 271°
2026-04-22 13:28 36.20277 -89.86436 40219 ft 433 kts 271°
2026-04-22 13:29 36.19878 -89.93886 40212 ft 434 kts 271°
2026-04-22 13:29 36.19473 -90.01339 40212 ft 434 kts 271°
2026-04-22 13:30 36.19064 -90.08793 40211 ft 434 kts 271°
2026-04-22 13:30 36.18651 -90.16244 40211 ft 434 kts 270°
2026-04-22 13:31 36.18232 -90.23695 40211 ft 434 kts 271°
2026-04-22 13:31 36.17810 -90.31137 40213 ft 433 kts 270°
2026-04-22 13:32 36.17383 -90.38579 40220 ft 433 kts 270°
2026-04-22 13:32 36.16951 -90.46018 40220 ft 433 kts 270°
2026-04-22 13:33 36.16512 -90.53512 40220 ft 434 kts 270°
2026-04-22 13:33 36.16074 -90.60905 40223 ft 434 kts 270°
2026-04-22 13:34 36.15627 -90.68383 40218 ft 433 kts 270°
2026-04-22 13:34 36.15179 -90.75812 40221 ft 433 kts 270°
2026-04-22 13:35 36.14726 -90.83239 40219 ft 433 kts 270°
2026-04-22 13:35 36.14286 -90.90677 40218 ft 432 kts 273°
2026-04-22 13:36 36.14242 -90.98090 40221 ft 431 kts 273°
2026-04-22 13:36 36.14173 -91.04257 40220 ft 431 kts 273°
2026-04-22 13:37 36.14080 -91.11677 40221 ft 432 kts 273°
2026-04-22 13:37 36.13964 -91.20367 40218 ft 432 kts 273°
2026-04-22 13:38 36.13877 -91.26542 40221 ft 432 kts 273°
2026-04-22 13:38 36.13712 -91.37757 40219 ft 433 kts 272°
2026-04-22 13:39 36.13597 -91.45208 40213 ft 433 kts 272°
2026-04-22 13:39 36.13477 -91.52655 40211 ft 433 kts 272°
2026-04-22 13:40 36.13352 -91.60121 40211 ft 434 kts 272°
2026-04-22 13:40 36.13223 -91.67581 40212 ft 434 kts 272°
2026-04-22 13:41 36.13089 -91.75054 40212 ft 435 kts 272°
2026-04-22 13:41 36.12950 -91.82531 40211 ft 435 kts 272°
2026-04-22 13:42 36.12806 -91.89999 40209 ft 435 kts 272°
2026-04-22 13:42 36.12658 -91.97486 40211 ft 435 kts 272°
2026-04-22 13:43 36.12505 -92.04962 40212 ft 435 kts 272°
2026-04-22 13:43 36.12347 -92.12456 40213 ft 435 kts 272°
2026-04-22 13:44 36.12185 -92.19937 40211 ft 435 kts 272°
2026-04-22 13:44 36.12018 -92.27408 40213 ft 434 kts 272°
2026-04-22 13:45 36.11846 -92.34881 40215 ft 434 kts 272°
2026-04-22 13:45 36.11669 -92.42395 40209 ft 434 kts 271°
2026-04-22 13:46 36.11490 -92.49816 40206 ft 434 kts 271°
2026-04-22 13:46 36.11303 -92.57330 40204 ft 434 kts 271°
2026-04-22 13:47 36.11113 -92.64797 40203 ft 434 kts 271°
2026-04-22 13:47 36.10918 -92.72253 40202 ft 434 kts 271°
2026-04-22 13:48 36.10720 -92.79719 40199 ft 434 kts 271°
2026-04-22 13:48 36.10516 -92.87175 40202 ft 434 kts 271°
2026-04-22 13:49 36.10308 -92.94634 40202 ft 434 kts 271°
2026-04-22 13:49 36.10095 -93.02096 40200 ft 434 kts 271°
2026-04-22 13:50 36.09877 -93.09556 40190 ft 434 kts 270°
2026-04-22 13:50 36.09655 -93.17016 40194 ft 434 kts 270°
2026-04-22 13:51 36.09428 -93.24480 40188 ft 434 kts 270°
2026-04-22 13:51 36.09197 -93.31948 40194 ft 435 kts 270°
2026-04-22 13:52 36.08961 -93.39411 40191 ft 435 kts 270°
2026-04-22 13:52 36.08721 -93.46900 40192 ft 436 kts 270°
2026-04-22 13:53 36.08476 -93.54430 40195 ft 436 kts 270°
2026-04-22 13:53 36.08240 -93.61924 40191 ft 436 kts 272°
2026-04-22 13:54 36.08311 -93.69416 40196 ft 436 kts 272°
2026-04-22 13:54 36.08353 -93.76910 40196 ft 436 kts 272°
2026-04-22 13:55 36.08387 -93.84409 40193 ft 437 kts 272°
2026-04-22 13:55 36.08416 -93.91918 40192 ft 437 kts 272°
2026-04-22 13:56 36.08440 -93.99430 40193 ft 437 kts 272°
2026-04-22 13:56 36.08460 -94.06938 40192 ft 437 kts 272°
2026-04-22 13:57 36.08475 -94.14443 40190 ft 437 kts 272°
2026-04-22 13:57 36.08485 -94.21957 40187 ft 437 kts 272°
2026-04-22 13:58 36.08491 -94.29470 40179 ft 436 kts 272°
2026-04-22 13:58 36.08492 -94.36965 40182 ft 436 kts 272°
2026-04-22 13:59 36.08488 -94.44468 40187 ft 436 kts 271°
2026-04-22 13:59 36.08480 -94.51963 40182 ft 436 kts 271°
2026-04-22 14:00 36.08466 -94.59448 40187 ft 436 kts 271°
2026-04-22 14:00 36.08449 -94.66944 40183 ft 436 kts 271°
2026-04-22 14:01 36.08426 -94.74487 40184 ft 436 kts 271°
2026-04-22 14:01 36.08399 -94.81969 40174 ft 435 kts 271°
2026-04-22 14:02 36.08367 -94.89442 40174 ft 435 kts 271°
2026-04-22 14:02 36.08331 -94.96928 40174 ft 435 kts 271°
2026-04-22 14:03 36.08290 -95.04405 40175 ft 435 kts 271°
2026-04-22 14:03 36.08244 -95.11886 40155 ft 435 kts 270°
2026-04-22 14:04 36.08194 -95.19377 40156 ft 436 kts 270°
2026-04-22 14:04 36.08139 -95.26881 40156 ft 436 kts 270°
2026-04-22 14:05 36.08079 -95.34382 40155 ft 436 kts 270°
2026-04-22 14:06 36.07980 -95.45637 40156 ft 437 kts 270°
2026-04-22 14:06 36.07909 -95.53155 40156 ft 438 kts 270°
2026-04-22 14:07 36.07832 -95.60678 40148 ft 438 kts 270°
2026-04-22 14:07 36.07751 -95.68215 40147 ft 438 kts 270°
2026-04-22 14:08 36.07666 -95.75682 39700 ft 428 kts 270°
2026-04-22 14:08 36.07623 -95.79334 39373 ft 421 kts 270°
2026-04-22 14:08 36.07579 -95.82937 38930 ft 418 kts 270°
2026-04-22 14:08 36.07534 -95.86521 38401 ft 416 kts 270°
2026-04-22 14:09 36.07488 -95.90093 37864 ft 416 kts 270°
2026-04-22 14:09 36.07442 -95.93663 37361 ft 414 kts 270°
2026-04-22 14:09 36.07410 -95.96066 37023 ft 413 kts 270°
2026-04-22 14:09 36.07346 -96.00756 36360 ft 412 kts 270°
2026-04-22 14:10 36.07313 -96.03142 36020 ft 411 kts 270°
2026-04-22 14:10 36.07263 -96.06667 35501 ft 410 kts 270°
2026-04-22 14:10 36.07212 -96.10180 35016 ft 409 kts 270°
2026-04-22 14:10 36.07161 -96.13685 34528 ft 408 kts 270°
2026-04-22 14:11 36.07108 -96.17189 34046 ft 406 kts 270°
2026-04-22 14:11 36.07055 -96.20670 33575 ft 405 kts 270°
2026-04-22 14:11 36.07000 -96.24145 33102 ft 403 kts 270°
2026-04-22 14:11 36.06945 -96.27613 32505 ft 405 kts 270°
2026-04-22 14:12 36.06888 -96.31126 31782 ft 415 kts 270°
2026-04-22 14:12 36.06829 -96.34740 31025 ft 427 kts 270°
2026-04-22 14:12 36.06767 -96.38463 30292 ft 439 kts 270°
2026-04-22 14:12 36.06701 -96.42259 29581 ft 443 kts 270°
2026-04-22 14:13 36.06634 -96.46110 28864 ft 443 kts 270°
2026-04-22 14:13 36.06568 -96.49878 28130 ft 444 kts 270°
2026-04-22 14:13 36.06500 -96.53692 27376 ft 445 kts 270°
2026-04-22 14:13 36.06430 -96.57565 26613 ft 445 kts 270°
2026-04-22 14:14 36.06359 -96.61387 25859 ft 444 kts 269°
2026-04-22 14:14 36.06288 -96.65154 25106 ft 444 kts 269°
2026-04-22 14:14 36.06215 -96.69006 24325 ft 443 kts 269°
2026-04-22 14:14 36.06142 -96.72800 23516 ft 442 kts 269°
2026-04-22 14:15 36.06068 -96.76593 22747 ft 439 kts 269°
2026-04-22 14:15 36.05963 -96.80354 21975 ft 437 kts 265°
2026-04-22 14:15 36.05476 -96.84039 21382 ft 432 kts 261°
2026-04-22 14:15 36.04965 -96.87668 20852 ft 425 kts 261°
2026-04-22 14:16 36.04469 -96.91214 20274 ft 411 kts 261°
2026-04-22 14:16 36.03993 -96.94618 19721 ft 394 kts 261°
2026-04-22 14:16 36.03536 -96.97887 19174 ft 379 kts 261°
2026-04-22 14:16 36.03089 -97.01083 18619 ft 377 kts 261°
2026-04-22 14:17 36.02640 -97.04277 17982 ft 379 kts 261°
2026-04-22 14:17 36.02192 -97.07464 17441 ft 370 kts 261°
2026-04-22 14:17 36.01757 -97.10544 16915 ft 360 kts 260°
2026-04-22 14:17 36.01029 -97.13514 16303 ft 365 kts 243°
2026-04-22 14:18 35.99536 -97.16023 15832 ft 363 kts 225°
2026-04-22 14:18 35.97712 -97.18157 15356 ft 361 kts 223°
2026-04-22 14:18 35.95866 -97.20262 14833 ft 360 kts 223°
2026-04-22 14:18 35.94010 -97.22349 14263 ft 360 kts 222°
2026-04-22 14:19 35.92189 -97.24375 13784 ft 345 kts 222°
2026-04-22 14:19 35.90433 -97.26316 13325 ft 333 kts 221°
2026-04-22 14:19 35.88737 -97.28189 12864 ft 321 kts 221°
2026-04-22 14:19 35.87100 -97.29991 12409 ft 311 kts 221°
2026-04-22 14:20 35.83953 -97.33455 11511 ft 298 kts 221°
2026-04-22 14:20 35.82406 -97.35157 11055 ft 297 kts 221°
2026-04-22 14:20 35.80876 -97.36839 10645 ft 293 kts 221°
2026-04-22 14:21 35.77884 -97.40124 9818 ft 278 kts 221°
2026-04-22 14:21 35.76942 -97.41158 9561 ft 271 kts 221°
2026-04-22 14:22 35.74152 -97.44218 8808 ft 252 kts 221°
2026-04-22 14:22 35.72852 -97.45615 8444 ft 244 kts 217°
2026-04-22 14:22 35.70054 -97.47777 7713 ft 231 kts 212°
2026-04-22 14:23 35.68712 -97.48809 7391 ft 223 kts 212°
2026-04-22 14:23 35.67420 -97.49813 7085 ft 216 kts 212°
2026-04-22 14:23 35.66149 -97.50806 6780 ft 217 kts 213°
2026-04-22 14:23 35.64880 -97.51804 6471 ft 216 kts 213°
2026-04-22 14:24 35.63618 -97.52798 6162 ft 215 kts 213°
2026-04-22 14:24 35.62361 -97.53791 5847 ft 215 kts 213°
2026-04-22 14:24 35.61105 -97.54782 5548 ft 214 kts 213°
2026-04-22 14:24 35.59861 -97.55764 5251 ft 212 kts 213°
2026-04-22 14:25 35.58623 -97.56741 4969 ft 211 kts 212°
2026-04-22 14:25 35.57387 -97.57716 4648 ft 210 kts 212°
2026-04-22 14:25 35.56160 -97.58586 4346 ft 198 kts 201°
2026-04-22 14:25 35.54859 -97.58908 4086 ft 186 kts 185°
2026-04-22 14:26 35.53607 -97.58924 3838 ft 172 kts 181°
2026-04-22 14:26 35.52446 -97.58910 3619 ft 164 kts 182°
2026-04-22 14:26 35.51314 -97.58905 3404 ft 162 kts 181°
2026-04-22 14:26 35.50185 -97.58903 3194 ft 162 kts 181°
2026-04-22 14:27 35.49068 -97.58902 2974 ft 160 kts 181°
2026-04-22 14:27 35.47982 -97.58901 2775 ft 149 kts 181°
2026-04-22 14:27 35.46975 -97.58901 2577 ft 139 kts 179°
2026-04-22 14:27 35.46034 -97.58899 2416 ft 133 kts 179°
2026-04-22 14:28 35.45109 -97.58899 2218 ft 133 kts 179°
2026-04-22 14:28 35.44171 -97.58896 2041 ft 135 kts 179°
2026-04-22 14:28 35.43234 -97.58895 1862 ft 134 kts 179°
2026-04-22 14:28 35.42294 -97.58896 1683 ft 136 kts 179°
2026-04-22 14:29 35.41348 -97.58894 1508 ft 136 kts 179°
2026-04-22 14:29 35.40397 -97.58895 1335 ft 136 kts 179°
2026-04-22 14:29 35.39536 -97.58894 1294 ft 93 kts 180°
2026-04-22 14:29 35.39127 -97.58893 1296 ft 27 kts 181°
2026-04-22 14:30 35.39000 -97.58930 1296 ft 19 kts 224°
2026-04-22 14:30 35.39025 -97.59055 1295 ft 19 kts 343°
2026-04-22 14:30 35.39168 -97.59062 1294 ft 22 kts 360°
2026-04-22 14:30 35.39321 -97.59063 1296 ft 22 kts 360°
2026-04-22 14:31 35.39464 -97.59105 1297 ft 22 kts 302°
2026-04-22 14:31 35.39469 -97.59200 1299 ft 7 kts 268°
2026-04-22 14:31 35.39469 -97.59256 1299 ft 7 kts 263°
2026-04-22 14:31 35.39434 -97.59301 1299 ft 10 kts 220°
2026-04-22 14:32 35.39401 -97.59391 1300 ft 13 kts 241°
2026-04-22 14:32 35.39379 -97.59501 1300 ft 14 kts 273°
2026-04-22 14:32 35.39378 -97.59608 1300 ft 9 kts 265°
2026-04-22 14:32 35.39415 -97.59669 1300 ft 9 kts 355°
2026-04-22 14:33 35.39444 -97.59661 1300 ft 2 kts 17°
2026-04-22 14:33 35.39451 -97.59658 1300 ft 0 kts 15°